📊 Raw Sensor Data

Showing records 49151 to 49175 of 85,113 total

ID Distance (ft) Battery V Battery A Int Temp (°F) Int Humid (%) Ext Temp (°F) Solar V RSSI SNR Time Stamp
35975 -- 3.95 -8 48 40 48 4.50 -91 7 03/25/2025 07:15 AM
35974 15.3 4.01 -9 48 40 49 1.70 -89 7 03/25/2025 07:00 AM
35973 -- 4.01 -5 49 40 49 0.50 -86 8 03/25/2025 06:45 AM
35972 -- 3.96 -5 50 40 51 0.00 -83 8 03/25/2025 06:30 AM
35971 -- 3.96 -5 50 40 51 0.00 -82 7 03/25/2025 06:15 AM
35970 -- 4.01 -5 50 40 52 0.00 -82 8 03/25/2025 06:00 AM
35969 -- 3.96 -5 49 40 51 0.00 -82 8 03/25/2025 05:45 AM
35968 -- 3.96 -5 49 40 51 0.00 -82 7 03/25/2025 05:30 AM
35967 -- 4.02 -5 49 40 51 0.00 -82 8 03/25/2025 05:15 AM
35966 -- 3.97 -5 49 40 51 0.00 -82 8 03/25/2025 05:00 AM
35965 15.5 3.97 -5 50 40 50 0.10 -82 7 03/25/2025 04:45 AM
35964 -- 4.02 -5 50 40 51 0.00 -81 8 03/25/2025 04:30 AM
35963 -- 3.97 -5 49 41 52 0.00 -81 8 03/25/2025 04:15 AM
35962 -- 3.97 -5 50 41 51 0.10 -82 8 03/25/2025 04:00 AM
35961 -- 3.97 -5 50 41 51 0.00 -82 7 03/25/2025 03:45 AM
35960 15.2 3.97 -5 51 40 52 0.00 -83 8 03/25/2025 03:30 AM
35959 -- 4.02 -5 52 40 53 0.10 -82 7 03/25/2025 03:15 AM
35958 -- 3.97 -5 52 40 51 0.00 -82 7 03/25/2025 03:00 AM
35957 -- 4.03 -5 53 40 54 0.00 -81 7 03/25/2025 02:45 AM
35956 -- 3.97 -5 52 40 54 0.00 -81 8 03/25/2025 02:30 AM
35955 -- 3.97 -5 52 41 52 0.00 -81 7 03/25/2025 02:15 AM
35954 -- 4.03 -5 52 41 54 0.00 -81 7 03/25/2025 02:00 AM
35953 -- 3.98 -5 52 41 54 0.00 -82 8 03/25/2025 01:45 AM
35952 -- 3.98 -5 53 41 54 0.00 -82 7 03/25/2025 01:30 AM
35951 -- 3.98 -5 53 41 55 0.00 -82 8 03/25/2025 01:15 AM